STARLINK-4783 (53835 NORAD) Tracking and Keplerian Element Data

This shows tracking and keplerian element data for the satellite.

Feedback or suggestion? Click here.




ElementValue
Catalog53835
NameSTARLINK-4783
Epoch Orbit130
Epoch Day324.91667824
Epoch Year2022
RAAN312.4476
Inclination53.2174
Eccentricity0.0001572
Argument of Perigee43.3047
Mean Anonmoly293.8453
Mean Motion15.17659297
Decay Rate-0.01145695
L11 53835U 22114T 22324.91667824 -.01145695 00000+0 -60973-1 0 9998
L22 53835 53.2174 312.4476 0001572 43.3047 293.8453 15.17659297 1301



Live tracking and technical data element details for STARLINK-4783 (NORAD 53835). STARLINK-4783 can be tracked NOW for your location showing map with azimuth and elevation plus other details from your city location.







IsCatalogInMostPopularTable: catalog: 53835, numindb: 1
Update: records affected: 1



GetName: 53835 STARLINK-4783

Hit Count: updated at: Mon, 28 Nov 2022 05:54:49 GMT